Location: Antoign�
(47.0844°N, 0.1131°W)
Time: 09:06:00
(UTC+00:00)

BREEZE-M DEB (TANK) - Pass Details

Date: 03 March 2021
Orbit: 308 x 15404 km, 49.5° (Epoch: 10 April)

Event Time Altitude Azimuth Distance (km) Brightness Sun altitude
Rises 19:42:29 0° 282° (WNW) 2,086 6.9 -20.0°
Reaches altitude 10° 19:43:52 10° 286° (WNW) 1,393 5.6 -20.3°
Maximum altitude 19:46:26 62° 10° (N) 625 2.5 -20.7°
Enters shadow 19:47:19 47° 64° (ENE) 839 2.8 -20.8°
